Waarnemingen

Advertentie
Mijn weer
Nancy/Essey, Frankrijk (7180): temperatuur & dauwpunt: 10.08.2018 21:00:00 - 16.08.2018 21:00:00 (CEST)Nancy/Essey, Frankrijk (7180): temperatuur 5cm: 10.08.2018 21:00:00 - 16.08.2018 21:00:00 (CEST)Nancy/Essey, Frankrijk (7180): temperatuur -20cm & temperatuur -100cm: 10.08.2018 21:00:00 - 16.08.2018 21:00:00 (CEST)Nancy/Essey, Frankrijk (7180): windsnelheid & windstoten: 10.08.2018 21:00:00 - 16.08.2018 21:00:00 (CEST)Nancy/Essey, Frankrijk (7180): windrichting: 10.08.2018 21:00:00 - 16.08.2018 21:00:00 (CEST)Nancy/Essey, Frankrijk (7180): luchtdruk: 10.08.2018 21:00:00 - 16.08.2018 21:00:00 (CEST)Nancy/Essey, Frankrijk (7180): zicht: 10.08.2018 21:00:00 - 16.08.2018 21:00:00 (CEST)Nancy/Essey, Frankrijk (7180): Zonneschijnduur: 10.08.2018 21:00:00 - 16.08.2018 21:00:00 (CEST)Nancy/Essey, Frankrijk (7180): neerslag: 10.08.2018 21:00:00 - 16.08.2018 21:00:00 (CEST)
Datum & Tijd tt [°C] td [°C] tt 5cm [°C] tt -20cm [°C] tt -100cm [°C] ff [km/u] ff [kn] fx [km/u] fx [kn] dd ppp [hPa] vv [km] sd [min] rr [mm]
16.08.2018 21:00:00 24,0 14,1 18,7 22,9 20,4 3 2 10 5 O 1012,6 58 23 0,0
16.08.2018 20:00:00 27,7 14,0 24,0 22,7 20,4 5 3 9 5 O 1012,2 60 46 0,0
16.08.2018 19:00:00 30,4 11,4 31,2 22,6 20,4 5 3 11 6 WNW 1012,3 60 60 0,0
16.08.2018 18:00:00 29,6 13,4 33,9 22,3 20,4 4 2 13 7 ONO 1012,8 19 60 0,0
16.08.2018 17:00:00 29,3 11,8 33,9 22,1 20,4 8 4 18 10 NO 1013,3 46 60 0,0
16.08.2018 16:00:00 29,1 12,9 34,2 21,8 20,4 9 5 17 9 O 1013,8 19 60 0,0
16.08.2018 15:00:00 28,4 13,5 33,6 21,6 20,4 6 3 15 8 O 1014,4 47 60 0,0
16.08.2018 14:00:00 27,9 15,5 33,6 21,5 20,4 5 3 14 8 ZZO 1015,0 38 60 0,0
16.08.2018 13:00:00 26,1 14,5 32,3 21,3 20,4 8 4 14 8 WZW 1015,6 20 60 0,0
16.08.2018 12:00:00 24,7 15,3 32,0 21,3 20,4 4 2 12 7 NW 1016,4 46 60 0,0
16.08.2018 11:00:00 23,1 15,7 28,8 21,3 20,4 3 2 9 5 ONO 1016,9 25 60 0,0
16.08.2018 10:00:00 21,0 15,5 25,6 21,3 20,4 3 2 8 5 O 1017,3 20 60 0,0
16.08.2018 09:00:00 19,5 14,9 19,4 21,5 20,4 1 1 5 3 OZO 1017,8 26 60 0,0
16.08.2018 08:00:00 15,9 14,3 11,6 21,6 20,4 2 1 4 2 OZO 1018,4 13 60 0,0
16.08.2018 07:00:00 13,0 12,5 8,8 21,7 20,4 3 1 6 4 ONO 1018,8 1,1 6 0,0
16.08.2018 06:00:00 12,7 12,1 9,2 21,9 20,4 5 3 6 3 OZO 1018,8 15 0 0,0
16.08.2018 05:00:00 13,3 12,5 10,0 22,0 20,4 2 1 6 4 OZO 1018,8 19 0 0,0
16.08.2018 04:00:00 13,8 13,0 10,3 22,2 20,4 1 1 5 3 ZZW 1019,1 31 0 0,0
16.08.2018 03:00:00 14,1 12,8 10,8 22,3 20,4 1 0 4 2 Z 1019,5 40 0 0,0
16.08.2018 02:00:00 15,0 13,5 11,3 22,4 20,4 1 1 5 3 NW 1019,7 46 0 0,0
16.08.2018 01:00:00 15,6 13,6 12,0 22,5 20,4 4 2 6 4 OZO 1019,8 60 0 0,0
16.08.2018 00:00:00 19,0 14,0 13,5 22,6 20,5 6 3 11 6 NW 1019,6 60 0 0,0
15.08.2018 23:00:00 17,7 14,4 13,7 22,6 20,5 2 1 7 4 NO 1019,6 19 0 0,0
15.08.2018 22:00:00 20,0 13,7 14,7 22,6 20,5 4 2 11 6 NW 1019,6 60 0 0,0
15.08.2018 21:00:00 21,5 13,9 17,7 22,6 20,5 9 5 14 7 N 1019,0 60 25 0,0
15.08.2018 20:00:00 23,3 14,6 22,1 22,5 20,5 10 6 18 10 NO 1018,9 60 60 0,0
15.08.2018 19:00:00 24,3 15,0 25,7 22,4 20,5 11 6 18 10 NO 1018,8 57 56 0,0
15.08.2018 18:00:00 24,4 13,6 24,6 22,2 20,4 9 5 22 12 NNW 1019,1 59 29 0,0
15.08.2018 17:00:00 24,3 13,8 26,3 22,0 20,5 8 4 22 12 ONO 1019,3 58 27 0,0
15.08.2018 16:00:00 25,8 12,6 25,8 21,8 20,5 6 3 21 12 W 1019,5 60 45 0,0
15.08.2018 15:00:00 24,0 12,6 24,9 21,7 20,5 9 5 19 10 WNW 1020,2 60 16 0,0
15.08.2018 14:00:00 23,2 13,1 25,2 21,6 20,5 10 5 23 12 N 1020,4 60 21 0,0
15.08.2018 13:00:00 22,7 14,5 25,8 21,5 20,5 5 3 20 11 W 1020,8 54 27 0,0
15.08.2018 12:00:00 22,4 14,3 24,1 21,4 20,5 6 4 16 9 N 1021,2 18 48 0,0
15.08.2018 11:00:00 20,1 13,5 21,8 21,5 20,5 6 4 11 6 WNW 1021,5 60 0 0,0
15.08.2018 10:00:00 19,2 14,2 19,8 21,6 20,5 6 3 16 8 WNW 1021,3 57 0 0,0
15.08.2018 09:00:00 18,6 15,1 18,2 21,6 20,5 4 2 10 5 W 1021,1 37 15 0,0
15.08.2018 08:00:00 16,6 15,3 12,6 21,8 20,5 3 1 9 5 ZO 1021,1 17 60 0,0
15.08.2018 07:00:00 14,4 13,8 10,5 21,9 20,5 1 1 4 2 N 1020,9 9 8 0,0
15.08.2018 06:00:00 14,2 13,2 11,0 22,0 20,5 5 3 7 4 OZO 1020,7 13 0 0,0
15.08.2018 05:00:00 15,4 13,6 12,3 22,1 20,5 4 2 6 3 ZZO 1020,5 20 0 0,0
15.08.2018 04:00:00 17,5 14,4 13,7 22,2 20,5 6 3 10 5 WNW 1020,1 46 0 0,0
15.08.2018 03:00:00 17,9 14,4 14,1 22,3 20,5 3 2 8 4 W 1020,0 49 0 0,0
15.08.2018 02:00:00 18,7 14,6 15,3 22,4 20,5 5 3 11 6 WNW 1020,1 55 0 0,0
15.08.2018 01:00:00 19,6 14,8 17,5 22,4 20,5 5 3 12 7 WNW 1020,0 60 0 0,0
15.08.2018 00:00:00 19,9 14,7 17,9 22,5 20,5 4 2 9 5 NW 1019,8 60 0 0,0
14.08.2018 23:00:00 20,2 14,6 17,7 22,5 20,6 5 3 9 5 NW 1019,7 60 0 0,0
14.08.2018 22:00:00 20,9 14,3 18,7 22,5 20,5 5 3 16 9 WNW 1019,1 60 0 0,0
14.08.2018 21:00:00 21,6 14,0 20,3 22,5 20,6 10 5 19 10 NW 1018,7 60 0 0,0
14.08.2018 20:00:00 22,0 13,9 21,0 22,4 20,6 8 4 19 10 N 1018,1 60 0 0,0
14.08.2018 19:00:00 22,5 13,8 22,4 22,3 20,5 12 6 25 14 N 1017,7 60 34 0,0
14.08.2018 18:00:00 23,5 13,9 22,8 22,1 20,6 15 8 27 15 N 1017,5 60 38 0,0
14.08.2018 17:00:00 22,5 13,8 22,9 21,9 20,6 16 9 29 16 NNW 1017,5 60 9 0,0
14.08.2018 16:00:00 23,9 13,7 24,0 21,8 20,6 15 8 34 18 WNW 1017,0 56 34 0,0
14.08.2018 15:00:00 23,4 13,0 23,8 21,6 20,6 15 8 41 22 NW 1016,9 54 13 0,0
14.08.2018 14:00:00 22,2 12,4 23,2 21,4 20,6 12 6 24 13 WNW 1017,0 57 41 0,0
14.08.2018 13:00:00 22,0 13,4 21,5 21,3 20,6 12 7 24 13 W 1016,8 20 48 0,0
14.08.2018 12:00:00 20,3 13,3 20,8 21,3 20,6 11 6 24 13 WNW 1017,3 60 12 0,0
14.08.2018 11:00:00 20,0 13,5 19,6 21,3 20,6 11 6 26 14 WZW 1017,1 59 32 0,0
14.08.2018 10:00:00 19,7 14,1 20,6 21,4 20,6 10 5 23 12 WNW 1016,7 55 45 0,0
14.08.2018 09:00:00 18,3 13,6 20,7 21,5 20,6 8 5 15 8 WNW 1016,2 60 60 0,0
14.08.2018 08:00:00 17,5 14,9 13,7 21,6 20,6 1 1 6 4 OZO 1015,8 28 60 0,0
14.08.2018 07:00:00 14,3 14,0 10,9 21,8 20,6 1 1 6 3 Z 1015,6 17 9 0,2
14.08.2018 06:00:00 14,3 13,8 11,7 21,9 20,6 3 1 7 4 OZO 1014,8 3,6 0 0,0
14.08.2018 05:00:00 14,5 14,0 11,9 21,9 20,6 4 2 8 4 ZO 1014,5 20 0 0,0
14.08.2018 04:00:00 14,1 13,5 12,5 22,1 20,6 4 2 8 4 ONO 1014,2 11 0 0,0
14.08.2018 03:00:00 15,0 14,2 13,0 22,2 20,6 2 1 8 4 ONO 1014,0 16 0 0,0
14.08.2018 02:00:00 15,2 14,4 12,7 22,3 20,6 4 2 6 3 ZO 1013,8 60 0 0,0
14.08.2018 01:00:00 16,5 15,0 13,3 22,4 20,7 3 2 10 5 Z 1013,5 55 0 0,0
14.08.2018 00:00:00 16,7 15,1 13,5 22,4 20,6 5 3 11 6 ZZO 1013,0 59 0 0,2
13.08.2018 23:00:00 17,9 15,5 16,2 22,5 20,6 6 4 22 12 WZW 1012,6 2,6 0 1,2
13.08.2018 22:00:00 20,2 13,9 17,9 22,5 20,7 8 5 15 8 ZZW 1011,6 60 0 0,0
13.08.2018 21:00:00 21,0 13,4 19,1 22,4 20,6 9 5 26 14 ZW 1010,8 60 26 0,0
13.08.2018 20:00:00 22,6 13,1 22,3 22,4 20,7 14 8 38 21 WZW 1010,0 58 38 0,0
13.08.2018 19:00:00 23,7 12,7 23,2 22,3 20,7 17 9 44 24 WZW 1009,7 32 47 0,0
13.08.2018 18:00:00 24,0 13,2 22,8 22,1 20,6 22 12 44 24 ZW 1009,8 44 22 0,0
13.08.2018 17:00:00 23,3 14,0 23,3 22,0 20,7 16 9 41 22 W 1009,6 59 3 0,0
13.08.2018 16:00:00 24,1 13,3 26,0 21,9 20,7 21 11 41 22 WZW 1009,6 60 23 0,0
13.08.2018 15:00:00 23,9 13,4 20,2 21,8 20,7 16 9 46 25 W 1009,8 60 35 0,0
13.08.2018 14:00:00 23,8 15,3 23,4 21,7 20,7 21 12 42 23 ZW 1009,8 53 23 0,0
13.08.2018 13:00:00 22,3 17,4 21,9 21,7 20,7 18 10 32 17 Z 1010,3 44 23 0,0
13.08.2018 12:00:00 20,7 17,7 19,5 21,7 20,7 18 10 32 18 ZZW 1010,8 53 0 0,0
13.08.2018 11:00:00 18,7 17,5 17,8 21,8 20,7 10 6 26 14 ZZW 1011,0 17 0 0,6
13.08.2018 10:00:00 18,8 16,8 18,1 21,9 20,7 16 9 30 16 ZZW 1010,7 56 0 0,0
13.08.2018 09:00:00 18,6 16,4 16,9 22,0 20,7 13 7 31 17 ZZW 1010,3 60 0 0,0
13.08.2018 08:00:00 18,0 16,3 16,9 22,1 20,7 13 7 42 23 W 1009,9 8 0 3,6
13.08.2018 07:00:00 18,6 17,1 17,3 22,2 20,7 30 16 76 41 WZW 1009,9 4,0 0 11,2
13.08.2018 06:00:00 20,1 16,3 15,4 22,4 20,7 14 8 24 13 ZZW 1007,5 60 0 0,8
13.08.2018 05:00:00 16,9 12,4 13,8 22,5 20,7 5 3 8 4 OZO 1008,1 20 0 0,0
13.08.2018 04:00:00 17,0 11,7 14,1 22,6 20,7 8 4 11 6 NNO 1008,4 60 0 0,0
13.08.2018 03:00:00 17,4 11,7 13,8 22,8 20,8 4 2 10 5 ONO 1009,0 60 0 0,0
13.08.2018 02:00:00 16,7 12,4 13,0 22,9 20,7 9 5 11 6 O 1009,6 60 0 0,0
13.08.2018 01:00:00 17,1 11,6 12,6 23,0 20,7 8 4 9 5 O 1010,2 60 0 0,0
13.08.2018 00:00:00 17,9 11,7 13,2 23,1 20,8 4 2 8 4 O 1010,9 60 0 0,0
12.08.2018 23:00:00 19,4 12,4 14,0 23,1 20,8 3 2 5 3 O 1011,0 60 0 0,0
12.08.2018 22:00:00 20,8 11,4 14,9 23,1 20,8 4 2 9 5 OZO 1010,9 60 0 0,0
12.08.2018 21:00:00 25,7 10,3 21,8 23,1 20,8 6 3 18 10 Z 1010,6 60 28 0,0
12.08.2018 20:00:00 28,0 9,3 27,5 22,9 20,8 12 6 24 13 ZZW 1010,5 60 60 0,0
12.08.2018 19:00:00 29,2 8,3 30,9 22,8 20,8 13 7 28 15 ZW 1010,8 60 60 0,0
12.08.2018 18:00:00 29,5 6,2 32,9 22,5 20,8 15 8 29 16 ZZW 1011,3 42 60 0,0
12.08.2018 17:00:00 29,6 6,9 34,4 22,2 20,8 14 8 33 18 Z 1012,0 54 60 0,0
12.08.2018 16:00:00 29,2 7,7 33,9 22,0 20,8 16 9 28 15 ZZO 1012,7 19 60 0,0
12.08.2018 15:00:00 27,9 8,7 33,0 21,8 20,8 11 6 20 11 ZZW 1013,8 20 60 0,0
12.08.2018 14:00:00 26,4 9,7 32,0 21,6 20,8 6 4 19 10 ZZW 1014,9 53 60 0,0
12.08.2018 13:00:00 25,1 11,3 30,9 21,5 20,8 8 5 18 10 ZO 1015,9 17 60 0,0
12.08.2018 12:00:00 23,7 9,7 29,5 21,4 20,8 4 2 14 8 N 1016,6 54 60 0,0
12.08.2018 11:00:00 22,2 11,0 28,1 21,4 20,8 3 2 8 4 ZO 1017,2 55 60 0,0
12.08.2018 10:00:00 19,9 11,4 24,4 21,5 20,8 2 1 6 3 ZO 1017,8 55 60 0,0
12.08.2018 09:00:00 16,9 10,7 17,5 21,7 20,8 3 1 7 4 OZO 1018,4 55 60 0,0
12.08.2018 08:00:00 13,9 10,5 9,5 21,8 20,8 2 1 6 3 OZO 1019,1 20 60 0,0
12.08.2018 07:00:00 10,0 9,1 5,7 22,0 20,8 4 2 6 4 OZO 1019,7 25 12 0,0
12.08.2018 06:00:00 9,9 8,8 5,7 22,2 20,8 2 1 5 3 O 1019,8 36 0 0,0
12.08.2018 05:00:00 10,6 9,0 6,4 22,4 20,9 1 1 4 2 NNO 1020,4 45 0 0,0
12.08.2018 04:00:00 10,8 9,1 7,0 22,5 20,8 4 2 6 3 OZO 1021,1 60 0 0,0
12.08.2018 03:00:00 11,5 9,2 8,0 22,7 20,9 5 3 6 3 OZO 1021,5 60 0 0,0
12.08.2018 02:00:00 12,3 9,1 8,2 22,9 20,9 3 2 13 7 NO 1021,9 60 0 0,0
12.08.2018 01:00:00 13,4 9,3 8,9 23,0 20,9 3 1 7 4 ONO 1022,1 60 0 0,0
12.08.2018 00:00:00 14,2 9,4 9,7 23,1 20,9 2 1 6 4 OZO 1022,5 60 0 0,0
11.08.2018 23:00:00 16,1 9,5 11,1 23,2 20,9 5 3 8 5 ZO 1022,5 58 0 0,0
11.08.2018 22:00:00 17,3 9,2 12,2 23,2 20,9 3 2 10 5 O 1022,4 60 0 0,0
11.08.2018 21:00:00 20,8 8,1 17,1 23,2 20,9 8 5 18 10 NNW 1022,0 60 31 0,0
11.08.2018 20:00:00 23,3 7,8 23,0 23,1 20,9 11 6 23 12 WNW 1021,8 59 48 0,0
11.08.2018 19:00:00 23,3 7,8 23,0 23,0 20,9 9 5 23 13 WNW 1022,0 60 34 0,0
11.08.2018 18:00:00 24,3 7,9 26,3 22,8 20,9 11 6 28 15 WNW 1022,0 50 53 0,0
11.08.2018 17:00:00 23,2 8,1 24,3 22,5 20,9 12 7 27 15 NW 1022,6 59 50 0,0
11.08.2018 16:00:00 23,9 8,3 26,8 22,3 20,9 13 7 34 18 NW 1023,0 59 56 0,0
11.08.2018 15:00:00 23,5 9,1 25,3 22,1 20,9 10 6 29 16 W 1023,5 60 53 0,0
11.08.2018 14:00:00 22,8 8,9 23,1 21,9 20,9 13 7 29 15 WNW 1023,8 60 35 0,0
11.08.2018 13:00:00 22,2 10,3 23,2 21,8 20,9 9 5 28 15 W 1024,2 56 40 0,0
11.08.2018 12:00:00 21,6 10,1 20,2 21,8 20,9 10 5 23 13 W 1024,8 60 45 0,0
11.08.2018 11:00:00 20,8 11,1 22,3 21,8 20,9 8 5 21 12 WZW 1024,9 55 50 0,0
11.08.2018 10:00:00 18,8 10,9 20,3 21,9 20,9 9 5 19 11 WNW 1025,1 57 52 0,0
11.08.2018 09:00:00 18,0 10,6 16,1 22,0 20,9 10 5 18 10 W 1025,0 50 46 0,0
11.08.2018 08:00:00 16,0 9,6 13,6 22,1 21,0 5 3 13 7 W 1024,9 60 0 0,0
11.08.2018 07:00:00 13,9 10,5 12,3 22,3 21,0 7 4 9 5 O 1024,8 60 0 0,0
11.08.2018 06:00:00 13,5 9,5 11,3 22,4 21,0 2 1 8 4 Z 1024,4 60 0 0,0
11.08.2018 05:00:00 12,7 9,3 8,6 22,6 21,0 3 2 7 4 O 1024,3 60 0 0,0
11.08.2018 04:00:00 12,7 9,1 9,3 22,7 21,0 4 2 5 3 OZO 1024,4 60 0 0,0
11.08.2018 03:00:00 12,4 9,0 9,1 22,9 21,0 3 2 9 5 ONO 1024,5 60 0 0,0
11.08.2018 02:00:00 13,0 9,3 9,7 23,0 21,0 7 4 8 4 OZO 1024,3 60 0 0,0
11.08.2018 01:00:00 15,1 9,5 11,7 23,1 21,0 6 3 11 6 OZO 1024,2 60 0 0,0
11.08.2018 00:00:00 18,2 7,6 16,1 23,2 21,0 6 3 14 8 WZW 1024,1 60 0 0,0
10.08.2018 23:00:00 18,7 7,5 16,9 23,3 21,0 8 5 18 10 W 1023,7 60 0 0,0
10.08.2018 22:00:00 19,6 7,7 17,3 23,4 21,0 8 4 23 12 W 1023,6 60 0 0,0
10.08.2018 21:00:00 20,5 7,1 18,9 23,4 21,0 14 7 27 15 WNW 1023,2 60 20 0,0

tt = temperatuur
td = dauwpunt
tt 5cm = temperatuur 5cm
tt -20cm = temperatuur -20cm
tt -100cm = temperatuur -100cm
ff = windsnelheid
fx = windstoten
dd = windrichting
ppp = luchtdruk
vv = zicht
sd = Zonneschijnduur
rr = neerslag

Weerstations in de omgeving